Other Public Products
Issued by NWS Charleston, SC

Current Version | Previous Version | Graphics & Text | Print | Product List | Glossary On
Versions: 1 2 3 4 5 6 7 8 9 10 11 12 13 14 15 16 17 18 19 20 21 22 23 24 25 26 27 28 29 30 31 32 33 34 35 36 37 38 39 40 41 42 43 44 45 46 47 48 49 50
960
FPUS82 KCHS 180012
OPUCHS

TEST...KCHS/KSAV Gateway Observations...TEST
National Weather Service Charleston SC
700 PM EST WED JAN 17 2018

NOTE: "fair" indicates few or no clouds below 12,000 feet with no
significant weather and/or obstructions to visibility.

SCZ050-WAZ558-NCZ071-TXZ119-213-PAZ071-DCZ001-FLZ074-172-MI076-
NYZ176-178-MAZ016-IL014-TNZ027-NJZ106-GAZ044-MD014-180100-

...Gateway Observations for Charleston International...

CITY           SKY/WX    TMP DP  RH WIND       PRES   REMARKS
Chas Airport   CLOUDY    39  31  72 NW15      30.21R WCI  31
6HR MIN TEMP:  39; 6HR MAX TEMP:  50; 6HR PCP: TRACE;

Seattle        LGT RAIN  51  45  79 SW10      29.78R
6HR MIN TEMP:  48; 6HR MAX TEMP:  56; 6HR PCP:  0.06;

Charlotte      FLURRIES  24  20  84 N12       30.28R WCI  13
6HR MIN TEMP:  24; 6HR MAX TEMP:  30; 6HR PCP:  0.03;

Dallas DFW     CLEAR     33   1  25 CALM      30.60F
6HR MIN TEMP:  26; 6HR MAX TEMP:  37;

Dallas Love    CLEAR     33   3  28 CALM      30.62F
6HR MIN TEMP:  26; 6HR MAX TEMP:  36;

Philladelphia  CLOUDY    25  10  53 NW12G22   30.26R WCI  14
6HR MIN TEMP:  25; 6HR MAX TEMP:  28;

Wash National  FAIR      24   8  50 N16       30.33S WCI  11
6HR MIN TEMP:  24; 6HR MAX TEMP:  28;

Baltimore      FAIR      22   8  55 NW9       30.29F WCI  12
6HR MIN TEMP:  22; 6HR MAX TEMP:  25;

Miami          CLOUDY    69  50  50 VRB3      30.18R
6HR MIN TEMP:  69; 6HR MAX TEMP:  74;

Detroit        MOCLDY    19  12  74 SW17      30.29F WCI   4
6HR MIN TEMP:  18; 6HR MAX TEMP:  24;

Newark         MOCLDY    27  16  63 NW12G21   30.19F WCI  17
6HR MIN TEMP:  27; 6HR MAX TEMP:  35; 6HR PCP: TRACE;

Laguardia      MOCLDY    28  18  66 NW15      30.17F WCI  16
6HR MIN TEMP:  28; 6HR MAX TEMP:  34; 6HR PCP: TRACE;

J F K          CLOUDY    29  21  72 NW15      30.18F WCI  18
6HR MIN TEMP:  29; 6HR MAX TEMP:  35; 6HR PCP: TRACE;

Boston Logan   LGT SNOW  32  31  96 NW8       30.10S FOG     WCI  25
6HR MIN TEMP:  32; 6HR MAX TEMP:  34; 6HR PCP:  0.02;

Ft. Lauderdale MOCLDY    64  49  57 N5        30.17S
6HR MIN TEMP:  64; 6HR MAX TEMP:  71;

Chicago O`Hare FAIR      18   8  65 SW15G21   30.34F WCI   4
6HR MIN TEMP:  16; 6HR MAX TEMP:  20;

Chicago Midway MOCLDY    19   9  65 SW15      30.36F WCI   5
6HR MIN TEMP:  17; 6HR MAX TEMP:  21;

Houston Bush   PTCLDY    33  15  47 N6        30.63F WCI  28
6HR MIN TEMP:  32; 6HR MAX TEMP:  39;

Houston Hobby  FAIR      33  15  47 N7        30.62F WCI  27
6HR MIN TEMP:  30; 6HR MAX TEMP:  37;

Nashville      FAIR      17   7  64 N7        30.61S WCI   8
6HR MIN TEMP:  17; 6HR MAX TEMP:  22;

Atlanta        FAIR      22   8  55 NW21G32   30.39R WCI   6
6HR MIN TEMP:  19; 6HR MAX TEMP:  25;


$$

GAZ044-118-TXZ119-213-NCZ071-DCZ001-MDZ014-506-PAZ021-071-NJZ106-
NYZ176-178-MAZ106-OHZ011-021-055-MIZ076-KYZ091-ILZ014-INZ047-
MNZ060-ONZ431-180100-

...Gateway Observations for Savannah International...

CITY           SKY/WX    TMP DP  RH WIND       PRES   REMARKS
Savannah Arpt  FAIR      38  19  46 NW14G22   30.27R WCI  30
6HR MIN TEMP:  38; 6HR MAX TEMP:  45;

Atlanta        FAIR      22   8  55 NW21G32   30.39R WCI   6
6HR MIN TEMP:  19; 6HR MAX TEMP:  25;

Charlotte      FLURRIES  24  20  84 N12       30.28R WCI  13
6HR MIN TEMP:  24; 6HR MAX TEMP:  30; 6HR PCP:  0.03;

Dallas DFW     CLEAR     33   1  25 CALM      30.60F
6HR MIN TEMP:  26; 6HR MAX TEMP:  37;

Houston Bush   PTCLDY    33  15  47 N6        30.63F WCI  28
6HR MIN TEMP:  32; 6HR MAX TEMP:  39;

Wash National  FAIR      24   8  50 N16       30.33S WCI  11
6HR MIN TEMP:  24; 6HR MAX TEMP:  28;

Wash Dulles    FAIR      22   7  52 NW13      30.32F WCI  10
6HR MIN TEMP:  21; 6HR MAX TEMP:  24;

Baltimore      FAIR      22   8  55 NW9       30.29F WCI  12
6HR MIN TEMP:  22; 6HR MAX TEMP:  25;

Philadelphia   CLOUDY    25  10  53 NW12G22   30.26R WCI  14
6HR MIN TEMP:  25; 6HR MAX TEMP:  28;

Newark         MOCLDY    27  16  63 NW12G21   30.19F WCI  17
6HR MIN TEMP:  27; 6HR MAX TEMP:  35; 6HR PCP: TRACE;

Laguardia      MOCLDY    28  18  66 NW15      30.17F WCI  16
6HR MIN TEMP:  28; 6HR MAX TEMP:  34; 6HR PCP: TRACE;

J F K          CLOUDY    29  21  72 NW15      30.18F WCI  18
6HR MIN TEMP:  29; 6HR MAX TEMP:  35; 6HR PCP: TRACE;

Boston         LGT SNOW  32  31  96 NW8       30.10S FOG     WCI  25
6HR MIN TEMP:  32; 6HR MAX TEMP:  34; 6HR PCP:  0.02;

Pittsburg      FAIR      10   5  80 SW7       30.36F WCI  -1
6HR MIN TEMP:  10; 6HR MAX TEMP:  15; 6HR PCP: TRACE;

Akron          FAIR       8   2  76 SW8       30.35F WCI  -4
6HR MIN TEMP:   8; 6HR MAX TEMP:  14; 6HR PCP: TRACE;

Cleveland      FAIR      16   8  71 SW9G21    30.38F WCI   4
6HR MIN TEMP:  16; 6HR MAX TEMP:  20;

Cincinnati     FAIR      15  10  80 SW7       30.49S WCI   5
6HR MIN TEMP:  14; 6HR MAX TEMP:  19; 6HR PCP: TRACE;

Columbus       FAIR       7   4  85 S7        30.46F WCI  -4
Detroit        MOCLDY    19  12  74 SW17      30.29F WCI   4
6HR MIN TEMP:  18; 6HR MAX TEMP:  24;

Chicago O`Hare FAIR      18   8  65 SW15G21   30.34F WCI   4
6HR MIN TEMP:  16; 6HR MAX TEMP:  20;

Minneapolis    FAIR      26  15  63 SW9       30.09S WCI  17
6HR MIN TEMP:  17; 6HR MAX TEMP:  27;

Indianapolis   FAIR      13   6  74 SW10      30.49F WCI   0
6HR MIN TEMP:  11; 6HR MAX TEMP:  18;

Toronto Canada CLEAR     18   9  68 SW13G20   30.17F WCI   4

$$




USA.gov is the U.S. government's official web portal to all federal, state and local government web resources and services.